Starlink 5994

operational
NORAD ID: 56457 Int'l Des: 2023-064 Owner: SPXS Country: US Constellation: starlink
LEOCIRCULAR

Starlink 5994について

説明を読み込み中...

リアルタイム位置

3D地球を読み込み中...

次回通過

高度履歴

Altitude vs Time

uPlot chart will show altitude changes over time

軌道要素

1 56457U 23064K 25350.42707429 .00000211 00000-0 25454-4 0 9990
2 56457 69.9995 354.4101 0003534 270.4296 89.6458 14.98328287142772
Epoch: Dec 16, 2025 • Age: 25 hours

現在のステータス

高度 585.5 km
速度 7.57 km/s
衛星直下点 -41.01°S, 71.7°E
打ち上げ日 May 10, 2023
運用期間 2.6 years
タイプ internet

技術仕様

分類 Payload
質量 305.00 kg
乾燥質量 290.00 kg
総質量 305.00 kg
長さ 0.20 m
直径 2.80 m
スパン 9.00 m
形状 Box + pan
製造者 SPXS
バスタイプ Starlink
フェーズステータス In Orbit
所有者/国 SPXS/US

大規模コンステレーション

Loading constellations...